Location: Hamilton
(39.3990°N, 84.5610°W)
Time: 04:38:08
(UTC-04:00)

ISS - Visible Passes

Search period start: 21 October 2017 00:00
Search period end: 31 October 2017 00:00
Orbit: 401 x 408 km, 51.6° (Epoch: 21 October)

Date Brightness Start Highest point End Pass type
(mag) Time Alt. Az. Time Alt. Az. Time Alt. Az.
28 Oct -1.4 07:12:00 10° S 07:14:43 25° SE 07:17:27 10° ENE visible
29 Oct -0.8 06:20:58 10° SSE 06:22:30 13° SE 06:24:02 10° E visible
30 Oct -3.5 07:02:57 10° SW 07:06:09 65° SE 07:09:23 10° ENE visible
